Location: White Mills Observatory
(37.5374°N, 86.0303°W)
Time: 23:29:33
(UTC-05:00)

Hubble Space Telescope - Visible Passes

Search period start: 10 February 2016 00:00
Search period end: 20 February 2016 00:00
Orbit: 540 x 543 km, 28.5° (Epoch: 10 February)

Date Brightness Start Highest point End Pass type
(mag) Time Alt. Az. Time Alt. Az. Time Alt. Az.
10 Feb 3.3 20:16:40 10° SSW 20:17:31 12° S 20:17:31 12° S visible
11 Feb 2.9 20:06:42 10° SSW 20:08:45 16° S 20:08:45 16° S visible
12 Feb 2.7 19:56:52 10° SSW 19:59:44 18° SSE 19:59:59 18° SSE visible
13 Feb 2.5 19:47:08 10° SW 19:50:12 20° S 19:51:10 18° SSE visible
14 Feb 2.5 19:37:28 10° SW 19:40:40 21° S 19:42:21 17° SE visible
15 Feb 2.5 19:27:51 10° SW 19:31:08 22° S 19:33:31 14° SE visible
15 Feb 3.8 21:08:46 10° WSW 21:08:56 11° SW 21:08:56 11° SW visible
16 Feb 2.5 19:18:17 10° SW 19:21:36 23° S 19:24:42 11° SE visible
16 Feb 3.6 20:59:24 10° SW 21:00:06 13° SW 21:00:06 13° SW visible
17 Feb 2.6 19:08:45 10° SW 19:12:04 23° S 19:15:22 10° SE visible
17 Feb 3.4 20:50:07 10° SW 20:51:18 14° SW 20:51:18 14° SW visible
18 Feb 2.7 18:59:14 10° SW 19:02:31 23° S 19:05:48 10° SE visible
18 Feb 3.3 20:40:56 10° SW 20:42:32 14° SSW 20:42:32 14° SSW visible
19 Feb 2.8 18:49:46 10° WSW 18:52:58 22° S 18:56:11 10° SE visible
19 Feb 3.4 20:31:58 10° SW 20:33:35 12° SSW 20:33:49 12° SSW visible
